Tracking 20093 objects as of 16-Dec-2019
HD Live streaming from Space Station
objects crossing your sky now

SL-8 DEB

Track SL-8 DEB now!
10-day predictions


NORAD ID: 21959
Int'l Code: 1991-009CH
Perigee: 1,501.0 km
Apogee: 1,710.4 km
Inclination: 74.0 °
Period: 118.2 minutes
Semi major axis: 7976 km
RCS: 0.0331 m2 (small)
Launch date: February 12, 1991
Source: Commonwealth of Independent States (former USSR) (CIS)
Launch site: PLESETSK MISSILE AND SPACE COMPLEX (PKMTR)

Note: This is SATELLITE DEBRIS
aabbcc
Your satellite tracking list
Your tracking list is empty




NASA's NSSDC Master Catalog

Two Line Element Set (TLE):
1 21959U 91009CH  19349.57076583 +.00000012 +00000-0 +26025-3 0  9993
2 21959 073.9685 280.1509 0131230 204.8954 330.2499 12.18622669278979
Source of the keplerian elements: AFSPC